TimeCET,TemperatureF,Dew PointF,Humidity,Sea Level PressureIn,VisibilityMPH,Wind Direction,Wind SpeedMPH,Gust SpeedMPH,PrecipitationIn,Events,Conditions,WindDirDegrees,DateUTC
12:45 AM,28.4,26.6,93,30.42,3.7,ESE,6.9,-,N/A,,Partly Cloudy,110,2012-12-29 23:45:00
1:00 AM,28,27,94,30.43,4,ESE,6.7,,,,Partly Cloudy,110,2012-12-30 00:00:00
1:45 AM,26.6,26.6,100,30.39,3.7,ESE,4.6,-,N/A,,Partly Cloudy,110,2012-12-30 00:45:00
2:45 AM,28.4,26.6,93,30.39,3.7,ESE,5.8,-,N/A,,Partly Cloudy,110,2012-12-30 01:45:00
3:45 AM,28.4,26.6,93,30.36,3.7,East,6.9,-,N/A,,Partly Cloudy,100,2012-12-30 02:45:00
4:45 AM,26.6,24.8,93,30.36,3.7,ESE,5.8,-,N/A,,Partly Cloudy,120,2012-12-30 03:45:00
5:15 AM,26.6,23.0,86,30.36,-9999.0,ESE,6.9,-,N/A,,Clear,120,2012-12-30 04:15:00
5:45 AM,28.4,23.0,80,30.33,-9999.0,ESE,8.1,-,N/A,,Clear,110,2012-12-30 04:45:00
6:15 AM,28.4,21.2,74,30.36,-9999.0,ESE,5.8,-,N/A,,Clear,120,2012-12-30 05:15:00
6:45 AM,26.6,21.2,80,30.33,-9999.0,ESE,5.8,-,N/A,,Clear,110,2012-12-30 05:45:00
7:00 AM,26,22,78,30.36,9,ESE,6.7,,,,Partly Cloudy,110,2012-12-30 06:00:00
7:15 AM,26.6,23.0,86,30.33,-9999.0,ESE,8.1,-,N/A,,Clear,110,2012-12-30 06:15:00
7:45 AM,28.4,24.8,86,30.33,-9999.0,East,8.1,-,N/A,,Clear,100,2012-12-30 06:45:00
8:15 AM,28.4,24.8,86,30.33,-9999.0,SE,2.3,-,N/A,,Clear,130,2012-12-30 07:15:00
8:45 AM,30.2,26.6,86,30.33,-9999.0,East,3.5,-,N/A,,Clear,100,2012-12-30 07:45:00
9:15 AM,32.0,26.6,80,30.33,-9999.0,East,2.3,-,N/A,,Clear,100,2012-12-30 08:15:00
9:45 AM,33.8,26.6,75,30.33,-9999.0,ESE,3.5,-,N/A,,Clear,120,2012-12-30 08:45:00
10:15 AM,35.6,26.6,70,30.33,-9999.0,ESE,4.6,-,N/A,,Clear,120,2012-12-30 09:15:00
10:45 AM,37.4,26.6,65,30.33,-9999.0,SE,2.3,-,N/A,,Clear,130,2012-12-30 09:45:00
11:15 AM,39.2,28.4,65,30.33,-9999.0,East,1.2,-,N/A,,Clear,100,2012-12-30 10:15:00
12:15 PM,39.2,26.6,61,30.30,-9999.0,East,4.6,-,N/A,,Clear,100,2012-12-30 11:15:00
12:45 PM,41.0,24.8,53,30.30,-9999.0,ESE,3.5,-,N/A,,Clear,110,2012-12-30 11:45:00
1:00 PM,40,26,44,30.30,11,ESE,2.2,,,,Partly Cloudy,110,2012-12-30 12:00:00
1:15 PM,41.0,24.8,53,30.27,-9999.0,SE,6.9,-,N/A,,Clear,130,2012-12-30 12:15:00
1:45 PM,39.2,24.8,56,30.27,-9999.0,ESE,9.2,-,N/A,,Clear,110,2012-12-30 12:45:00
2:15 PM,39.2,26.6,61,30.27,-9999.0,ESE,8.1,-,N/A,,Clear,110,2012-12-30 13:15:00
2:45 PM,39.2,26.6,61,30.27,-9999.0,SE,6.9,-,N/A,,Clear,130,2012-12-30 13:45:00
3:15 PM,39.2,26.6,61,30.27,-9999.0,SE,5.8,-,N/A,,Clear,130,2012-12-30 14:15:00
3:45 PM,37.4,26.6,65,30.27,-9999.0,East,5.8,-,N/A,,Clear,100,2012-12-30 14:45:00
4:15 PM,35.6,26.6,70,30.27,-9999.0,East,4.6,-,N/A,,Clear,90,2012-12-30 15:15:00
4:45 PM,33.8,26.6,75,30.27,-9999.0,ENE,2.3,-,N/A,,Clear,60,2012-12-30 15:45:00
5:15 PM,32.0,28.4,87,30.27,-9999.0,NNE,3.5,-,N/A,,Clear,20,2012-12-30 16:15:00
5:45 PM,32.0,30.2,93,30.27,-9999.0,NE,4.6,-,N/A,,Clear,40,2012-12-30 16:45:00
6:15 PM,32.0,30.2,93,30.27,-9999.0,ENE,5.8,-,N/A,,Clear,60,2012-12-30 17:15:00
6:45 PM,30.2,28.4,93,30.30,-9999.0,ENE,5.8,-,N/A,,Clear,60,2012-12-30 17:45:00
7:00 PM,30,29,95,30.30,6,ENE,4.5,,,,Partly Cloudy,60,2012-12-30 18:00:00
7:15 PM,30.2,28.4,93,30.30,5.0,North,6.9,-,N/A,,Unknown,350,2012-12-30 18:15:00
7:45 PM,28.4,28.4,100,30.30,3.7,North,4.6,-,N/A,,Unknown,360,2012-12-30 18:45:00
8:11 PM,26.6,26.6,100,30.33,0.2,North,6.9,-,N/A,Fog,Light Freezing Fog,350,2012-12-30 19:11:00
8:15 PM,26.6,26.6,100,30.30,0.2,North,6.9,-,N/A,Fog,Light Freezing Fog,350,2012-12-30 19:15:00
8:45 PM,26.6,26.6,100,30.33,0.2,North,5.8,-,N/A,Fog,Light Freezing Fog,360,2012-12-30 19:45:00
9:45 PM,28.4,28.4,100,30.33,0.2,North,5.8,-,N/A,Fog,Light Freezing Fog,360,2012-12-30 20:45:00
10:45 PM,28.4,26.6,93,30.33,0.1,North,4.6,-,N/A,Fog,Light Freezing Fog,10,2012-12-30 21:45:00
11:45 PM,26.6,26.6,100,30.33,0.1,NNW,4.6,-,N/A,Fog,Light Freezing Fog,330,2012-12-30 22:45:00